Preview of NWS' New Version of Forecast
This preview is not operational and should not be used for support decisions.

Regional Weather Roundup (RWR)

Issued by National Weather Service (NWS)

                            
000
ASUS45 KABQ 181701
RWRNM 
NEW MEXICO REGIONAL WEATHER ROUNDUP
NATIONAL WEATHER SERVICE ALBUQUERQUE NM
1100 AM MDT SUN AUG 18 2019

NOTE: "FAIR" MEANS FEW OR NO CLOUDS BELOW 12,000 FEET AGL WITH NO
       SIGNIFICANT WEATHER OR OBSTRUCTIONS TO VISION.

      THIS PRODUCT IS RELEASED AS TWO VERSIONS.  ONE VERSION NEAR
      THE TOP OF THE HOUR CONTAINING PRELIMINARY DATA FROM ALBUQUERQUE
      AND OTHER STATIONS.  A FINAL VERSION WITH ADDITIONAL DATA IS 
      ISSUED ABOUT 10 MINUTES AFTER THE HOUR.
 
NMZ501-503-504-510>518-181800-
NORTHWEST PLATEAU/NORTHCENTRAL MOUNTAINS
  
CITY           SKY/WX    TMP DP  RH WIND       PRES   REMARKS
FARMINGTON     FAIR      78  30  17 S5        30.16S                  
LOS ALAMOS       N/A     75  24  15 NE3       30.29S                  
SANTA FE       FAIR      81  28  14 CALM      30.21S                  
TAOS             N/A     79  26  14 SW7       30.29S                  
ANGEL FIRE     FAIR      72  37  28 CALM      30.37S                  

$$
NMZ402-403-502-505>509-181800-
WESTCENTRAL MOUNTAINS/SOUTHWEST MOUNTAINS
  
CITY           SKY/WX    TMP DP  RH WIND       PRES   REMARKS
GALLUP         FAIR      82  30  15 SW12      30.25S                  
GRANTS         FAIR      79  36  21 CALM      30.26S                  
SILVER CITY    FAIR      86  36  17 W20       30.16S                  

$$
NMZ407-409-411-412-181800-
SOUTHERN DESERTS
  
CITY           SKY/WX    TMP DP  RH WIND       PRES   REMARKS
DEMING         FAIR      92  35  13 NW13      30.08R                  
LAS CRUCES     CLOUDY    88  35  15 CALM      30.10R                  
HOLLOMAN AFB   FAIR      93  37  14 N10       30.06R                  
ALAMOGORDO     FAIR      90  37  15 N6        30.06R                  
T OR C         FAIR      89  33  13 N6        30.11S                  

$$
NMZ519>523-181800-
CENTRAL VALLEYS/CENTRAL HIGHLANDS
  
CITY           SKY/WX    TMP DP  RH WIND       PRES   REMARKS
ALBUQUERQUE    CLOUDY    83  35  18 VRB3      30.16S                  
DOUBLE EAGLE   MOSUNNY   82  36  18 VRB6      30.19S                  
CLINES CORNERS FAIR      84  26  12 NW12G22   30.26R                  
BELEN          FAIR      84  30  14 CALM      30.16R                  
SOCORRO        FAIR      90  32  13 N12G18    30.12R                  

$$
NMZ524>526-539-540-181800-
SOUTHCENTRAL MOUNTAINS
  
CITY           SKY/WX    TMP DP  RH WIND       PRES   REMARKS
RUIDOSO        FAIR      82  32  16 W5        30.26S                  

$$
NMZ527>531-181800-
NORTHEAST HIGHLANDS/NORTHEAST PLAINS
  
CITY           SKY/WX    TMP DP  RH WIND       PRES   REMARKS
LAS VEGAS      FAIR      85  24  11 NW7       30.23R                  
RATON          FAIR      82  42  24 CALM      30.16S                  
CLAYTON        FAIR      84  55  36 N9G18     30.07S                  

$$
NMZ532>537-181800-
EASTCENTRAL PLAINS
  
CITY           SKY/WX    TMP DP  RH WIND       PRES   REMARKS
TUCUMCARI      FAIR      90  42  18 CALM      29.99S                  
CANNON AFB     FAIR      92  40  15 N8        30.02S                  
CLOVIS AIRPORT FAIR      93  43  17 N6        30.02R                  

$$
NMZ028-029-538-181800-
SOUTHEAST PLAINS
  
CITY           SKY/WX    TMP DP  RH WIND       PRES   REMARKS
ROSWELL        FAIR      95  43  16 NE6       29.97S                  
ARTESIA        FAIR      90  52  27 CALM      29.99R                  
CARLSBAD       FAIR      93  49  22 N9        29.94S                  
HOBBS          MOSUNNY   93  55  27 SW10G17   29.97S                  


$$